Simultaneous Nadir Overpasses (SNOs) Predictions

Prediction of SNOs between LANDSAT-8 and METOP-A Satellite Orbit:

Table of predicted SNOs for the next 14.0 days since TLE Epoch: 5/2/2020
Index Date (LANDSAT-8) Time (LANDSAT-8) Lat,Lon (LANDSAT-8) SZA (LANDSAT-8 ) Date (METOP-A) Time (METOP-A) Lat,Lon (METOP-A) SZA (METOP-A ) Distance(km) Time Diff (sec)
1 05/02/2020 08:57:07 -81.49, -88.38 111.33 05/02/2020 08:56:32 -81.49, -88.31 111.34 1.31 35
2 05/02/2020 09:46:33 81.49, 79.34 68.67 05/02/2020 09:47:12 81.48, 79.31 68.68 1.33 39
3 05/05/2020 04:31:21 -81.48, -22.11 112.16 05/05/2020 04:30:55 -81.49, -22.19 112.18 1.58 26
4 05/05/2020 05:20:47 81.49, 145.59 67.84 05/05/2020 05:21:35 81.49, 145.39 67.85 3.21 48
5 05/08/2020 00:05:33 -81.49, 44.53 112.90 05/08/2020 00:05:15 -81.48, 44.71 112.89 3.09 18
6 05/08/2020 00:55:00 81.48,-148.20 67.04 05/08/2020 00:55:56 81.49,-148.14 67.08 1.39 56
7 05/10/2020 19:39:47 -81.48, 110.74 113.66 05/10/2020 19:39:38 -81.49, 110.80 113.66 0.94 9
8 05/10/2020 20:29:13 81.48, -81.62 66.33 05/10/2020 20:30:18 81.48, -81.68 66.36 1.08 65
9 05/13/2020 14:24:33 81.49, 9.64 65.67 05/13/2020 14:23:20 81.49, 9.47 65.62 2.84 73
10 05/13/2020 15:14:00 -81.49, 177.32 114.34 05/13/2020 15:14:00 -81.49, 177.27 114.35 0.89 0




NCC Satellite Simultaneous Nadir Overpasses (SNOs) Prediction Service
